Weather History for KLVJ - September, 2013

Change the Weather History Date:

Thursday, September 12, 2013

  Actual Average (KHOU) Record (KHOU)
Temperature  
Mean Temperature 83 °F 81 °F  
Max Temperature 91 °F 91 °F 101 °F (1909)
Min Temperature 75 °F 71 °F 56 °F (1907)
Degree Days  
Heating Degree Days 0 0  
Month to date heating degree days 0  
Since 1 July heating degree days 0  
Cooling Degree Days 18 16  
Month to date cooling degree days 205  
Year to date cooling degree days 2587  
Growing Degree Days 33 (Base 50)    
Moisture  
Dew Point 70 °F    
Average Humidity 66    
Maximum Humidity 88    
Minimum Humidity 41    
Precipitation  
Precipitation 0.00 in 0.15 in 2.25 in (2003)
Month to date precipitation 1.76  
Year to date precipitation 33.63  
Sea Level Pressure  
Sea Level Pressure 30.00 in    
Wind  
Wind Speed 4 mph (East)    
Max Wind Speed 15 mph    
Max Gust Speed 22 mph    
Visibility 10 miles    
Events      
T = Trace of Precipitation, MM = Missing Value Source: NWS Daily Summary

Daily Weather History Graph

Daily Weather History Graph

Search for Another Location

Airport or City:

Trip Planner

Search our weather history database for the weather conditions in past years. The results will help you decide how hot, cold, wet, or windy it might be!

Date:

Astronomy

Sep. 12, 2013 Rise Set
Actual Time 7:04 AM CDT 7:29 PM CDT
Civil Twilight 6:40 AM CDT 7:53 PM CDT
Nautical Twilight 6:12 AM CDT 8:21 PM CDT
Astronomical Twilight 5:43 AM CDT 8:49 PM CDT
Moon 2:03 PM CDT (9/12) No Moon Set
Length of Visible Light 13h 13m
Length of Day
12h 25m
Waxing Crescent, 50% of the Moon is Illuminated
Sep 12
Waxing Crescent
Sep 12
First Quarter
Sep 19
Full
Sep 26
Last Quarter
Oct 4
New

Hourly Weather History & Observations

Time (CDT) Temp. Heat Index Dew Point Humidity Pressure Visibility Wind Dir Wind Speed Gust Speed Precip Events Conditions
12:53 AM 79.0 °F - 72.0 °F 79% 30.03 in 10.0 mi Calm Calm - N/A   Clear
1:53 AM 75.9 °F - 72.0 °F 87% 30.02 in 10.0 mi Calm Calm - N/A   Clear
2:53 AM 78.1 °F - 72.0 °F 81% 30.01 in 10.0 mi Calm Calm - N/A   Clear
3:53 AM 77.0 °F - 72.0 °F 84% 30.01 in 10.0 mi Calm Calm - N/A   Clear
4:53 AM 78.1 °F - 73.0 °F 84% 30.01 in 10.0 mi NNE 3.5 mph - N/A   Clear
5:53 AM 78.1 °F - 73.0 °F 84% 30.01 in 10.0 mi Calm Calm - N/A   Clear
6:53 AM 77.0 °F - 73.0 °F 88% 30.02 in 10.0 mi NNE 3.5 mph - N/A   Clear
7:53 AM 78.1 °F - 73.0 °F 84% 30.03 in 8.0 mi NE 3.5 mph - N/A   Clear
8:53 AM 82.0 °F 88.6 °F 75.0 °F 79% 30.04 in 10.0 mi NE 5.8 mph - N/A   Clear
9:53 AM 84.0 °F 91.2 °F 73.9 °F 72% 30.04 in 10.0 mi ENE 6.9 mph - N/A   Partly Cloudy
10:13 AM 86.0 °F 93.4 °F 73.4 °F 66% 30.05 in 10.0 mi ENE 6.9 mph - N/A   Mostly Cloudy
10:34 AM 87.8 °F 93.8 °F 71.6 °F 58% 30.05 in 10.0 mi ENE 11.5 mph - N/A   Scattered Clouds
10:53 AM 88.0 °F 92.9 °F 70.0 °F 55% 30.05 in 10.0 mi ENE 9.2 mph - N/A   Partly Cloudy
11:53 AM 90.0 °F 92.8 °F 66.9 °F 46% 30.04 in 10.0 mi East 13.8 mph 19.6 mph N/A   Clear
12:53 PM 91.0 °F 92.6 °F 64.0 °F 41% 30.03 in 10.0 mi NE 15.0 mph 21.9 mph N/A   Clear
1:53 PM 91.0 °F 93.0 °F 64.9 °F 42% 30.00 in 10.0 mi East 9.2 mph 16.1 mph N/A   Clear
2:53 PM 91.9 °F 94.1 °F 64.9 °F 41% 29.98 in 10.0 mi East 10.4 mph 18.4 mph N/A   Clear
3:53 PM 91.0 °F 93.0 °F 64.9 °F 42% 29.96 in 10.0 mi East 11.5 mph 19.6 mph N/A   Clear
4:53 PM 91.0 °F 95.2 °F 68.0 °F 47% 29.94 in 10.0 mi ESE 12.7 mph - N/A   Clear
5:53 PM 89.1 °F 91.3 °F 66.0 °F 46% 29.93 in 10.0 mi East 11.5 mph - N/A   Clear
6:53 PM 88.0 °F 91.4 °F 68.0 °F 51% 29.93 in 10.0 mi SE 10.4 mph - N/A   Clear
7:53 PM 84.9 °F 88.8 °F 69.1 °F 59% 29.94 in 10.0 mi SE 3.5 mph - N/A   Clear
8:53 PM 82.9 °F 86.5 °F 69.1 °F 63% 29.95 in 10.0 mi SE 3.5 mph - N/A   Clear
9:53 PM 77.0 °F - 69.1 °F 76% 29.96 in 10.0 mi Calm Calm - N/A   Clear
10:53 PM 77.0 °F - 69.1 °F 76% 29.96 in 10.0 mi Calm Calm - N/A   Clear
11:53 PM 78.1 °F - 70.0 °F 76% 29.95 in 10.0 mi Calm Calm - N/A   Clear